Home   Weather   Stockerau   Past weeks

Flag for Austria Past Weather in Stockerau, Lower Austria, Austria — Yesterday and Last 2 Weeks

Now
46 °F

Passing clouds.


Feels Like: 43 °F
Forecast: 29 / 47 °F
Wind: 7 mph from West

Location: Tulln Airport

Current Time: Dec 10, 2016 at 5:48:38 pm

Latest Report: Dec 10, 2016 at 4:50 pm


Visibility: 25 mi

Pressure: 30.21 "Hg

Humidity: 62%

Dew Point: 34 °F

Location of StockerauLocation

Past Weather in Stockerau — Graph

°F

Stockerau Temperature Yesterday

Maximum temperature yesterday: 46 °F (at 10:50 am)
Minimum temperature yesterday: 37 °F (at 4:50 am)
Average temperature yesterday: 43 °F

High & Low Weather Summary for the Past Weeks

 TemperatureHumidityPressure
High52 °F (Dec 10, 11:50 am)100% (Nov 25, 4:50 pm)30.69 "Hg (Nov 25, 4:50 pm)
Low18 °F (Dec 4, 6:50 am)46% (Dec 9, 12:50 pm)29.83 "Hg (Dec 2, 4:50 am)
Average36 °F78%30.31 "Hg
* Reported Nov 25 4:50 pm — Dec 10 4:50 pm, Stockerau, Weather by CustomWeather, © 2016

Note: Actual official high and low records may vary slightly from our data, if they occured in-between our weather recording intervals... More about our weather records

Advertising

Stockerau Weather History for the Previous 24 Hours

Scroll right to see more
 ConditionsComfort  
Time TempWeatherWind HumidityBarometerVisibility
4:50 pm
Sat, Dec 10
46 °FPassing clouds.7 mph62%30.21 "Hg25 mi
3:50 pm48 °FPartly sunny.7 mph66%30.21 "Hg31 mi
2:50 pm50 °FPartly sunny.12 mph67%30.24 "Hg31 mi
1:50 pm52 °FPartly sunny.10 mph58%30.24 "Hg37 mi
12:50 pm52 °FPartly sunny.13 mph54%30.24 "Hg37 mi
11:50 am52 °FPartly sunny.16 mph54%30.27 "Hg37 mi
10:50 am50 °FPartly sunny.15 mph58%30.30 "Hg37 mi
9:50 am46 °FPartly sunny.8 mph71%30.30 "Hg37 mi
8:50 am45 °FPartly sunny.6 mph76%30.30 "Hg37 mi
7:50 am43 °FScattered clouds.10 mph81%30.30 "Hg31 mi
6:50 am43 °FPassing clouds.10 mph76%30.30 "Hg7 mi
5:50 am43 °FPassing clouds.12 mph81%30.30 "Hg6 mi
4:50 am43 °FPassing clouds.6 mph81%30.33 "Hg6 mi
9:50 pm
Fri, Dec 9
43 °FPassing clouds.14 mph71%30.42 "Hg12 mi
8:50 pm43 °FPassing clouds.18 mph71%30.39 "Hg12 mi
7:50 pm43 °FPassing clouds.21 mph66%30.39 "Hg12 mi
Weather by CustomWeather, © 2016

See weather overviewHow to use our weather pages